Location: Kershaw
(34.5481°N, 80.5823°W)
Time: 15:59:48
(UTC+00:00)

Courier 1B Rocket - Pass Details

Date: 30 September 2022
Orbit: 920 x 1202 km, 28.2° (Epoch: 08 December)

Event Time Altitude Azimuth Distance (km) Brightness Sun altitude
Rises 06:35:53 0° 265° (W) 3,551 - -52.8°
Reaches altitude 10° 06:39:02 10° 251° (WSW) 2,620 - -52.4°
Maximum altitude 06:43:43 22° 202° (SSW) 1,932 - -51.8°
Drops below altitude 10° 06:48:32 10° 154° (SSE) 2,707 - -51.2°
Sets 06:51:52 0° 140° (SE) 3,700 - -50.7°
